Regional Weather Roundup
Issued by NWS Kansas City/Pleasant Hill, MO

Home | Current Version | Previous Version | Text Only | Print | Product List | Glossary On
Versions: 1 2 3 4 5 6 7 8 9 10 11 12 13 14 15 16 17 18 19 20 21 22 23 24 25 26 27 28 29 30 31 32 33 34 35 36 37 38 39 40 41 42 43 44 45 46 47 48 49 50
000
ASUS43 KEAX 311310
RWREAX

WEATHER ROUNDUP FOR EASTERN KANSAS AND NORTHWEST MISSOURI
NATIONAL WEATHER SERVICE KANSAS CITY/PLEASANT HILL MO
800 AM CDT FRI JUL 31 2015

KSZ040-057-103>105-MOZ028-029-037-043-311400-
...KANSAS CITY METROPOLITAN AREA...

CITY           SKY/WX    TMP DP  RH WIND       PRES   REMARKS
K.C. INTL      MOSUNNY   70  64  81 SW5       30.18R
K.C. DOWNTOWN  SUNNY     72  66  81 CALM      30.18R
LEES SUMMIT    SUNNY     70  64  81 SW6       30.19R
OLATHE - IXD   SUNNY     69  65  86 S5        30.19S
OLATHE - OJC   SUNNY     68  64  87 S3        30.18S
LAWRENCE       SUNNY     66  64  93 CALM      30.19R

$$

MOZ001>008-011>017-020>025-030>033-038>040-044>046-053-054-311400-
...NORTHERN AND CENTRAL MISSOURI...

CITY           SKY/WX    TMP DP  RH WIND       PRES   REMARKS
ST. JOSEPH     SUNNY     68  67  96 CALM      30.19R
MOSBY          SUNNY     64  64 100 CALM      30.18S
WARRENSBURG    SUNNY     66  64  94 CALM      30.18R
WHITEMAN AFB   SUNNY     70  64  81 W2        30.17R
CLINTON        SUNNY     70  70 100 CALM      30.18S
SEDALIA        SUNNY     74  63  68 SW3       30.19R
WARSAW         NOT AVBL
CHILLICOTHE      N/A     73  66  78 SW6       30.17S
KIRKSVILLE     PTSUNNY   71  63  75 W7        30.16R

$$

MOZ041-047>049-056>058-063>065-088>090-097-311400-
...EASTERN AND SOUTHERN MISSOURI...

CITY           SKY/WX    TMP DP  RH WIND       PRES   REMARKS
ST. LOUIS INTL SUNNY     78  65  63 W8        30.14S
SPIRIT OF STL  SUNNY     73  69  87 CALM      30.13S
COLUMBIA       SUNNY     74  66  76 NW3       30.17S
JEFFERSON CITY SUNNY     70  67  90 CALM      30.17R
ROLLA          SUNNY     71  65  81 CALM      30.17S
OSAGE BEACH    CLOUDY    64  63  94 CALM      30.18S VSB<1/4
SPRINGFIELD    MOSUNNY   73  65  75 S3        30.19R
BRANSON        PTSUNNY   70  66  88 CALM      30.20R
JOPLIN         MOSUNNY   74  66  76 CALM      30.19R
WEST PLAINS    SUNNY     73  64  73 CALM      30.19S

$$

IAZ060-094-KSZ022-034>040-054-083-096-NEZ052-066-093-311400-
...KANSAS...SOUTHEAST NEBRASKA AND IOWA...

CITY           SKY/WX    TMP DP  RH WIND       PRES   REMARKS
TOPEKA         SUNNY     68  65  90 CALM      30.19R
MANHATTAN      SUNNY     68  65  90 CALM      30.18S
EMPORIA        SUNNY     68  67  96 CALM      30.19S
CHANUTE        SUNNY     73  67  81 SE3       30.18S
WICHITA        MOSUNNY   74  69  85 E5        30.18F
OMAHA          MOSUNNY   75  64  68 CALM      30.14R
LINCOLN        SUNNY     72  66  81 SE7       30.19R
FALLS CITY     SUNNY     70  65  84 S5        30.17F
LAMONI         PTSUNNY   72  62  71 SW10      30.15S
DES MOINES     MOSUNNY   74  64  71 N5        30.14R

$$




USA.gov is the U.S. government's official web portal to all federal, state and local government web resources and services.